Schneifelwetter: Wetterstation Hallschlag, 537 m . NN
Wetterdaten: Dienstag, 14.11.2006
Datum Zeit Temp. A. Temp. 2 Feuchte A. Luftdruck Regen Wind Richtung Richtung Sonnenschein Helligkeit T Regen Taupunkt Windchill
14.11.2006 00:09 9,6 C 9,5 C 92 % 1009 hPa 0,0 l/m 33,2 km/h (5 Bft) W45 275 0 min 0 lux 0,00 min 8,4 C -0,6 C
14.11.2006 00:24 9,6 C 9,4 C 92 % 1009 hPa 0,3 l/m 31,6 km/h (5 Bft) W45 275 0 min 0 lux 15,00 min 8,4 C -0,2 C
14.11.2006 00:39 9,6 C 9,2 C 93 % 1009 hPa 0,0 l/m 30,4 km/h (5 Bft) W22.5 260 0 min 0 lux 0,00 min 8,5 C 0,0 C
14.11.2006 00:54 9,6 C 9,4 C 93 % 1009 hPa 0,0 l/m 40,1 km/h (6 Bft) W67.5 265 0 min 0 lux 0,00 min 8,5 C -1,7 C
14.11.2006 01:09 9,6 C 9,5 C 93 % 1009 hPa 0,0 l/m 32,5 km/h (5 Bft) W22.5 260 0 min 0 lux 0,00 min 8,5 C -0,4 C
14.11.2006 01:24 9,6 C 9,4 C 93 % 1009 hPa 0,0 l/m 31,0 km/h (5 Bft) W45 260 0 min 0 lux 0,00 min 8,5 C -0,1 C
14.11.2006 01:39 9,6 C 9,3 C 93 % 1009 hPa 0,0 l/m 27,4 km/h (4 Bft) W45 265 0 min 0 lux 0,00 min 8,5 C 0,7 C
14.11.2006 01:54 9,6 C 9,3 C 93 % 1009 hPa 0,0 l/m 22,8 km/h (4 Bft) W45 280 0 min 0 lux 0,00 min 8,5 C 1,9 C
14.11.2006 02:09 9,6 C 9,3 C 93 % 1009 hPa 0,9 l/m 18,9 km/h (3 Bft) W-SW22.5 250 0 min 0 lux 15,00 min 8,5 C 3,1 C
14.11.2006 02:24 9,6 C 9,4 C 94 % 1009 hPa 0,3 l/m 33,5 km/h (5 Bft) W-SW45 245 0 min 0 lux 15,00 min 8,7 C -0,6 C
14.11.2006 02:39 9,7 C 9,5 C 94 % 1009 hPa 0,0 l/m 35,2 km/h (5 Bft) W45 265 0 min 0 lux 0,00 min 8,8 C -0,8 C
14.11.2006 02:54 9,7 C 9,6 C 94 % 1009 hPa 0,3 l/m 31,5 km/h (5 Bft) W22.5 270 0 min 0 lux 15,00 min 8,8 C -0,1 C
14.11.2006 03:09 9,7 C 9,5 C 94 % 1009 hPa 0,0 l/m 41,5 km/h (6 Bft) W67.5 260 0 min 0 lux 0,00 min 8,8 C -1,8 C
14.11.2006 03:24 9,6 C 9,5 C 94 % 1009 hPa 0,0 l/m 41,3 km/h (6 Bft) W67.5 265 0 min 0 lux 0,00 min 8,7 C -1,9 C
14.11.2006 03:39 9,7 C 9,6 C 94 % 1009 hPa 0,0 l/m 37,3 km/h (5 Bft) W67.5 260 0 min 0 lux 0,00 min 8,8 C -1,1 C
14.11.2006 03:54 9,5 C 9,2 C 93 % 1009 hPa 0,0 l/m 41,6 km/h (6 Bft) W-SW22.5 255 0 min 0 lux 0,00 min 8,4 C -2,1 C
14.11.2006 04:09 9,4 C 9,2 C 93 % 1009 hPa 0,0 l/m 37,7 km/h (5 Bft) W45 275 0 min 0 lux 0,00 min 8,3 C -1,6 C
14.11.2006 04:24 9,4 C 9,3 C 93 % 1009 hPa 0,0 l/m 43,2 km/h (6 Bft) W45 265 0 min 0 lux 0,00 min 8,3 C -2,4 C
14.11.2006 04:39 9,5 C 9,3 C 92 % 1009 hPa 0,0 l/m 30,6 km/h (5 Bft) W67.5 265 0 min 0 lux 0,00 min 8,3 C -0,2 C
14.11.2006 04:54 9,5 C 9,3 C 93 % 1009 hPa 0,0 l/m 26,5 km/h (4 Bft) W45 260 0 min 0 lux 0,00 min 8,4 C 0,8 C
14.11.2006 05:09 9,5 C 9,3 C 93 % 1009 hPa 0,0 l/m 26,7 km/h (4 Bft) W-SW45 240 0 min 0 lux 0,00 min 8,4 C 0,7 C
14.11.2006 05:24 9,6 C 9,5 C 94 % 1009 hPa 0,0 l/m 28,1 km/h (4 Bft) W45 270 0 min 0 lux 0,00 min 8,7 C 0,5 C
14.11.2006 05:39 9,7 C 9,5 C 94 % 1009 hPa 0,0 l/m 31,7 km/h (5 Bft) W45 275 0 min 0 lux 0,00 min 8,8 C -0,1 C
14.11.2006 05:54 9,7 C 9,5 C 94 % 1009 hPa 0,0 l/m 24,3 km/h (4 Bft) W45 260 0 min 0 lux 0,00 min 8,8 C 1,6 C
14.11.2006 06:09 9,6 C 9,5 C 94 % 1009 hPa 0,3 l/m 20,4 km/h (4 Bft) W22.5 260 0 min 0 lux 15,00 min 8,7 C 2,6 C
14.11.2006 06:24 9,5 C 9,3 C 94 % 1009 hPa 0,0 l/m 15,8 km/h (3 Bft) W-SW45 255 0 min 0 lux 0,00 min 8,6 C 4,2 C
14.11.2006 06:39 9,5 C 9,3 C 94 % 1009 hPa 0,6 l/m 15,3 km/h (3 Bft) W-SW22.5 255 0 min 0 lux 15,00 min 8,6 C 4,4 C
14.11.2006 06:54 9,4 C 9,3 C 94 % 1009 hPa 0,3 l/m 14,2 km/h (3 Bft) W-SW22.5 250 0 min 0 lux 15,00 min 8,5 C 4,8 C
14.11.2006 07:09 9,4 C 9,2 C 94 % 1009 hPa 0,6 l/m 11,0 km/h (2 Bft) W-SW22.5 255 0 min 0 lux 15,00 min 8,5 C 6,4 C
14.11.2006 07:24 9,4 C 9,2 C 95 % 1009 hPa 0,3 l/m 16,3 km/h (3 Bft) W-SW45 240 0 min 61 lux 15,00 min 8,6 C 3,9 C
14.11.2006 07:39 9,6 C 9,5 C 95 % 1009 hPa 0,3 l/m 16,6 km/h (3 Bft) W-SW45 250 0 min 93 lux 15,00 min 8,8 C 4,0 C
14.11.2006 08:00 10,1 C 9,9 C 95 % 1009 hPa 0,3 l/m 26,5 km/h (4 Bft) W-SW45 255 0 min 592 lux 21,00 min 9,3 C 1,6 C
14.11.2006 08:15 10,3 C 10,1 C 95 % 1010 hPa 0,0 l/m 40,4 km/h (6 Bft) W-SW45 255 0 min 833 lux 0,00 min 9,5 C -0,7 C
14.11.2006 08:30 10,3 C 10,2 C 95 % 1010 hPa 0,6 l/m 35,1 km/h (5 Bft) W22.5 260 0 min 467 lux 15,00 min 9,5 C 0,1 C
14.11.2006 08:45 10,4 C 10,2 C 95 % 1010 hPa 0,3 l/m 32,5 km/h (5 Bft) W-SW22.5 255 0 min 1,26 klux 15,00 min 9,6 C 0,7 C
14.11.2006 09:00 10,4 C 10,3 C 95 % 1010 hPa 0,0 l/m 32,4 km/h (5 Bft) W-SW22.5 255 0 min 2,24 klux 0,00 min 9,6 C 0,7 C
14.11.2006 09:15 10,5 C 10,3 C 95 % 1010 hPa 0,0 l/m 32,2 km/h (5 Bft) W-SW45 255 0 min 1,60 klux 0,00 min 9,7 C 0,9 C
14.11.2006 09:30 10,6 C 10,4 C 95 % 1010 hPa 0,0 l/m 32,6 km/h (5 Bft) W22.5 260 0 min 2,16 klux 0,00 min 9,8 C 1,0 C
14.11.2006 09:45 10,6 C 10,4 C 95 % 1010 hPa 0,3 l/m 32,3 km/h (5 Bft) W45 260 0 min 5,73 klux 15,00 min 9,8 C 1,0 C
14.11.2006 10:00 10,7 C 10,5 C 95 % 1010 hPa 0,0 l/m 26,1 km/h (4 Bft) W-SW22.5 250 0 min 5,05 klux 0,00 min 9,9 C 2,5 C
14.11.2006 10:15 10,8 C 10,6 C 95 % 1010 hPa 0,0 l/m 29,3 km/h (5 Bft) W-SW22.5 255 0 min 4,58 klux 0,00 min 10,0 C 1,9 C
14.11.2006 10:30 10,9 C 10,7 C 95 % 1011 hPa 0,3 l/m 28,3 km/h (4 Bft) W-SW45 250 0 min 6,38 klux 15,00 min 10,1 C 2,3 C
14.11.2006 10:45 11,0 C 10,7 C 95 % 1011 hPa 0,0 l/m 31,8 km/h (5 Bft) W22.5 270 0 min 6,00 klux 0,00 min 10,2 C 1,7 C
14.11.2006 11:00 11,1 C 10,9 C 95 % 1011 hPa 0,0 l/m 24,0 km/h (4 Bft) W22.5 260 0 min 8,59 klux 0,00 min 10,3 C 3,6 C
14.11.2006 11:15 11,2 C 10,9 C 95 % 1011 hPa 0,0 l/m 26,3 km/h (4 Bft) W45 260 0 min 6,24 klux 0,00 min 10,4 C 3,1 C
14.11.2006 11:30 11,1 C 10,8 C 94 % 1011 hPa 0,0 l/m 33,2 km/h (5 Bft) W-SW45 250 0 min 9,3 klux 0,00 min 10,2 C 1,6 C
14.11.2006 11:45 11,1 C 10,8 C 94 % 1011 hPa 0,0 l/m 29,6 km/h (5 Bft) W-SW45 255 0 min 7,53 klux 0,00 min 10,2 C 2,3 C
14.11.2006 12:00 11,1 C 10,8 C 94 % 1011 hPa 0,0 l/m 29,8 km/h (5 Bft) W-SW22.5 255 0 min 6,54 klux 0,00 min 10,2 C 2,2 C
14.11.2006 12:15 11,0 C 10,7 C 94 % 1011 hPa 0,0 l/m 32,8 km/h (5 Bft) W45 260 0 min 3,85 klux 0,00 min 10,1 C 1,5 C
14.11.2006 12:30 10,9 C 10,6 C 94 % 1011 hPa 0,0 l/m 36,4 km/h (5 Bft) W-SW45 250 0 min 4,38 klux 0,00 min 10,0 C 0,8 C
14.11.2006 12:45 10,8 C 10,6 C 94 % 1011 hPa 0,3 l/m 34,6 km/h (5 Bft) W-SW45 255 0 min 5,50 klux 15,00 min 9,9 C 0,9 C
14.11.2006 13:00 10,8 C 10,6 C 94 % 1011 hPa 0,0 l/m 30,0 km/h (5 Bft) W-SW45 240 0 min 5,20 klux 0,00 min 9,9 C 1,8 C
14.11.2006 13:15 10,9 C 10,6 C 94 % 1011 hPa 0,0 l/m 37,7 km/h (5 Bft) W-SW22.5 250 0 min 7,30 klux 0,00 min 10,0 C 0,6 C
14.11.2006 13:30 10,8 C 10,5 C 94 % 1011 hPa 0,0 l/m 37,7 km/h (5 Bft) W-SW67.5 245 0 min 4,04 klux 0,00 min 9,9 C 0,4 C
14.11.2006 13:45 10,7 C 10,5 C 94 % 1011 hPa 0,0 l/m 35,5 km/h (5 Bft) W-SW45 250 0 min 2,99 klux 0,00 min 9,8 C 0,6 C
14.11.2006 14:00 10,8 C 10,5 C 94 % 1011 hPa 0,0 l/m 33,5 km/h (5 Bft) W-SW45 240 0 min 4,45 klux 0,00 min 9,9 C 1,1 C
14.11.2006 14:15 10,7 C 10,5 C 94 % 1011 hPa 0,0 l/m 34,2 km/h (5 Bft) W-SW45 245 0 min 3,04 klux 0,00 min 9,8 C 0,8 C
14.11.2006 14:30 10,6 C 10,4 C 94 % 1011 hPa 0,0 l/m 35,6 km/h (5 Bft) W-SW45 250 0 min 4,64 klux 0,00 min 9,7 C 0,5 C
14.11.2006 14:45 10,6 C 10,4 C 94 % 1011 hPa 0,0 l/m 33,2 km/h (5 Bft) W-SW45 240 0 min 3,83 klux 0,00 min 9,7 C 0,9 C
14.11.2006 15:01 10,6 C 10,4 C 94 % 1011 hPa 0,0 l/m 36,4 km/h (5 Bft) W-SW45 245 0 min 3,77 klux 0,00 min 9,7 C 0,3 C
14.11.2006 15:15 10,5 C 10,4 C 94 % 1011 hPa 0,0 l/m 35,0 km/h (5 Bft) W-SW45 255 0 min 1,81 klux 0,00 min 9,6 C 0,4 C
14.11.2006 15:30 10,4 C 10,3 C 94 % 1011 hPa 0,0 l/m 39,2 km/h (6 Bft) SW67.5 235 0 min 1,09 klux 0,00 min 9,5 C -0,4 C
14.11.2006 15:45 10,4 C 10,3 C 94 % 1011 hPa 0,0 l/m 31,5 km/h (5 Bft) W22.5 260 0 min 833 lux 0,00 min 9,5 C 0,9 C
14.11.2006 16:00 10,4 C 10,2 C 94 % 1011 hPa 0,0 l/m 38,4 km/h (5 Bft) W45 260 0 min 986 lux 0,00 min 9,5 C -0,3 C
14.11.2006 16:15 10,4 C 10,2 C 94 % 1011 hPa 0,0 l/m 28,9 km/h (5 Bft) W-SW22.5 255 0 min 834 lux 0,00 min 9,5 C 1,5 C
14.11.2006 16:30 10,3 C 10,1 C 95 % 1011 hPa 0,0 l/m 32,2 km/h (5 Bft) W-SW22.5 255 0 min 519 lux 0,00 min 9,5 C 0,6 C
14.11.2006 16:45 10,2 C 10,1 C 95 % 1011 hPa 0,0 l/m 32,9 km/h (5 Bft) W-SW45 240 0 min 350 lux 0,00 min 9,4 C 0,4 C
14.11.2006 17:00 10,1 C 10,1 C 95 % 1011 hPa 0,0 l/m 21,8 km/h (4 Bft) W-SW67.5 245 0 min 78 lux 0,00 min 9,3 C 2,9 C
14.11.2006 17:15 10,1 C 10,0 C 95 % 1011 hPa 0,0 l/m 31,3 km/h (5 Bft) SW45 230 0 min 32 lux 0,00 min 9,3 C 0,5 C
14.11.2006 17:30 10,1 C 10,0 C 95 % 1012 hPa 0,0 l/m 31,1 km/h (5 Bft) SW45 225 0 min 7 lux 0,00 min 9,3 C 0,6 C
14.11.2006 17:45 10,2 C 10,0 C 95 % 1012 hPa 0,0 l/m 36,1 km/h (5 Bft) W-SW45 245 0 min 0 lux 0,00 min 9,4 C -0,2 C
14.11.2006 18:00 10,2 C 10,0 C 95 % 1012 hPa 0,0 l/m 33,6 km/h (5 Bft) W-SW45 245 0 min 0 lux 0,00 min 9,4 C 0,2 C
14.11.2006 18:15 10,1 C 10,0 C 95 % 1012 hPa 0,0 l/m 34,6 km/h (5 Bft) SW45 230 0 min 0 lux 0,00 min 9,3 C -0,1 C
14.11.2006 18:30 10,1 C 10,0 C 94 % 1012 hPa 0,0 l/m 30,5 km/h (5 Bft) SW45 220 0 min 0 lux 0,00 min 9,2 C 0,7 C
14.11.2006 18:45 10,0 C 10,0 C 94 % 1012 hPa 0,0 l/m 37,5 km/h (5 Bft) W-SW45 240 0 min 0 lux 0,00 min 9,1 C -0,7 C
14.11.2006 19:00 10,0 C 9,9 C 94 % 1012 hPa 0,0 l/m 32,1 km/h (5 Bft) SW45 235 0 min 0 lux 0,00 min 9,1 C 0,2 C
14.11.2006 19:15 10,0 C 9,9 C 94 % 1012 hPa 0,0 l/m 30,7 km/h (5 Bft) SW67.5 230 0 min 0 lux 0,00 min 9,1 C 0,5 C
14.11.2006 19:30 9,9 C 9,7 C 94 % 1012 hPa 0,0 l/m 28,1 km/h (4 Bft) W-SW45 245 0 min 0 lux 0,00 min 9,0 C 0,9 C
14.11.2006 19:45 9,8 C 9,7 C 94 % 1012 hPa 0,0 l/m 32,7 km/h (5 Bft) W-SW45 245 0 min 0 lux 0,00 min 8,9 C -0,2 C
14.11.2006 20:00 9,8 C 9,6 C 94 % 1012 hPa 0,3 l/m 27,1 km/h (4 Bft) W-SW45 250 0 min 0 lux 15,00 min 8,9 C 1,0 C
14.11.2006 20:15 9,7 C 9,6 C 95 % 1012 hPa 0,0 l/m 29,8 km/h (5 Bft) W-SW45 240 0 min 0 lux 0,00 min 8,9 C 0,3 C
14.11.2006 20:30 9,7 C 9,5 C 95 % 1012 hPa 0,0 l/m 31,6 km/h (5 Bft) W-SW45 240 0 min 0 lux 0,00 min 8,9 C -0,1 C
14.11.2006 20:45 9,6 C 9,5 C 95 % 1012 hPa 0,0 l/m 30,0 km/h (5 Bft) W-SW45 245 0 min 0 lux 0,00 min 8,8 C 0,1 C
14.11.2006 21:00 9,6 C 9,5 C 95 % 1012 hPa 0,0 l/m 31,3 km/h (5 Bft) W-SW45 240 0 min 0 lux 0,00 min 8,8 C -0,2 C
14.11.2006 21:15 9,6 C 9,5 C 95 % 1012 hPa 0,0 l/m 35,4 km/h (5 Bft) W-SW45 240 0 min 0 lux 0,00 min 8,8 C -1,0 C
14.11.2006 21:30 9,6 C 9,4 C 95 % 1012 hPa 0,0 l/m 31,2 km/h (5 Bft) W-SW45 255 0 min 0 lux 0,00 min 8,8 C -0,2 C
14.11.2006 21:45 9,5 C 9,3 C 95 % 1012 hPa 0,0 l/m 28,7 km/h (4 Bft) W-SW45 250 0 min 0 lux 0,00 min 8,7 C 0,2 C
14.11.2006 22:00 9,5 C 9,3 C 95 % 1012 hPa 0,0 l/m 36,2 km/h (5 Bft) SW67.5 235 0 min 0 lux 0,00 min 8,7 C -1,2 C
14.11.2006 22:15 9,5 C 9,3 C 95 % 1012 hPa 0,0 l/m 34,5 km/h (5 Bft) W-SW45 240 0 min 0 lux 0,00 min 8,7 C -0,9 C
14.11.2006 22:30 9,5 C 9,3 C 95 % 1012 hPa 0,0 l/m 31,0 km/h (5 Bft) W-SW45 240 0 min 0 lux 0,00 min 8,7 C -0,3 C
14.11.2006 22:39 9,5 C 9,3 C 95 % 1013 hPa 0,0 l/m 31,6 km/h (5 Bft) W-SW45 255 0 min 0 lux 0,00 min 8,7 C -0,4 C
14.11.2006 22:54 9,5 C 9,3 C 95 % 1013 hPa 0,0 l/m 31,8 km/h (5 Bft) W-SW45 240 0 min 0 lux 0,00 min 8,7 C -0,4 C
14.11.2006 23:09 9,4 C 9,2 C 95 % 1013 hPa 0,0 l/m 29,5 km/h (5 Bft) SW67.5 225 0 min 0 lux 0,00 min 8,6 C -0,1 C
14.11.2006 23:24 9,4 C 9,2 C 94 % 1013 hPa 0,0 l/m 30,6 km/h (5 Bft) W-SW45 240 0 min 0 lux 0,00 min 8,5 C -0,3 C
14.11.2006 23:39 9,3 C 9,2 C 94 % 1013 hPa 0,0 l/m 33,1 km/h (5 Bft) SW45 230 0 min 0 lux 0,00 min 8,4 C -1,0 C
14.11.2006 23:54 9,2 C 9,0 C 94 % 1013 hPa 0,0 l/m 23,9 km/h (4 Bft) W-SW45 245 0 min 0 lux 0,00 min 8,3 C 1,1 C
_ Min-Zeit 23:54 23:54 00:09 00:09 - 07:09 - - - - - 04:39 04:24
Minimum _ 9,2 C 9,0 C 92 % 1009 hPa - 11,0 km/h (2 Bft) - - - - - 8,3 C -2,4 C
_ Max-Zeit 11:15 11:00 07:24 22:39 02:09 04:24 - - 00:09 11:30 08:00 11:15 07:09
Maximum _ 11,2 C 10,9 C 95 % 1013 hPa 0,9 l/m 43,2 km/h
W (6 Bft)
- - 0 min 9,3 klux 21,00 min 10,4 C 6,4 C
Durchschnitt _ 10,0 C 9,8 C 94 % 1011 hPa #6,3 l/m 31,0 km/h (5 Bft) W-SW - #0 min. 1,40 klux #4:21 h 9,1 C 0,7 C